P/1997 C1 ( Gehrels ) 2013

Japanese version
Home page
Updated on January 7, 2012

---------------------------------------------------------------------

* Profile

* Orbital Elements

Perturbed ephemeris below is based on elements from MPC 31204. 

 Epoch = 2456480.50000 TT   T = 2456481.74901 TT
 Peri. =  210.93294         a =     6.8597017 AU
 Node  =  225.29285 J2000.0 e =     0.4749553
 Incl. =    2.85498         q =     3.6016500 AU

* Finding Charts

* Magnitudes Graph

        m1 = 3.0 + 5 log d + 20 log r

---------------------------------------------------------------------

The orbital elements are calculated using the Minor Planet & Comet Ephemeris Service.
The charts are made with StellaNavigator Ver.8 (AstroArts).
The magnitudes graphs are made with Comet for Windows.

---------------------------------------------------------------------

Copyright(C) Seiichi Yoshida (comet@aerith.net). All rights reserved.